Weather in Chupakhivka

Ukraine / Sumi District     50°22′24″N   34°35′01″E
temp.,
°C
wind,
m/s
gust,
m/s
humid.,
%
clouds,
%
prec.,
mm/h
press.,
hPa
HPBL,
m
27 october, wed
wed2700:00+2ssw495411 0.0 1029155
03:00+1ssw49505 0.0 1029145
06:000ssw410534 0.0 1027174
09:00+3ssw512620 0.0 1027321
12:00+8sw69560 0.0 1025731
15:00+10wsw685972 0.0 10241108
18:00+8wsw366737 0.0 1023156
21:00+7w3574100 0.0 1024141
28 october, thu
thu2800:00+6wnw347354 0.0 102472
03:00+4w3381100 0.0 102436
06:00+4wsw3587100 0.0 102388
09:00+6wsw41080100 0.0 1023266
12:00+9wsw61169100 0.0 1022562
15:00+12w51069100 0.0 1020745
18:00+10wnw498098 0.1 1021502
21:00+9nw498693 0.1 1022387
29 october, fri
fri2900:00+9nw359113 0.0 1023159
03:00+6nnw36962 0.0 1025103
06:00+5n35945 0.0 102680
09:00+6nne36815 0.0 1028185
12:00+11ene35570 0.0 1028738
15:00+12ene34560 0.0 1028962
18:00+8ene22740 0.0 102918
21:00+6ese35840 0.0 103083
30 october, sat
sat3000:00+5ese34900 0.0 103164
03:00+4se34920 0.0 103254
06:00+4se34930 0.0 103256
09:00+5se35870 0.0 1033135
12:00+11sse45590 0.0 1033613
15:00+13sse34500 0.0 1032952
18:00+9se33630 0.0 103218
21:00+7se33690 0.0 103231
31 october, sun
sun3100:00+6se33730 0.0 103236
03:00+5se33780 0.0 103228
05:00+4ese33860 0.0 103237
08:00+5ese36800 0.0 1031150
11:00+12se56550 0.0 1030651
14:00+13ese45440 0.0 1027882
17:00+8e46630 0.0 102781
20:00+7ese49720 0.0 1027153